Location: Unspecified
(0.0000°N, 0.0000°E)
Time: 18:32:32
(UTC+00:00)

deb r/b Ablestar - Visible Passes

Search period start: 12 June 2025 00:00
Search period end: 22 June 2025 00:00
Orbit: 845 x 1007 km, 66.5° (Epoch: 12 June)

Date Brightness Start Highest point End Pass type
(mag) Time Alt. Az. Time Alt. Az. Time Alt. Az.
16 Jun?19:48:10NE19:48:10NE19:34:48Svisible
16 Jun ? 21:31:30 10° NW 21:31:30 10° NW 21:31:34 10° NW visible
17 Jun ? 19:47:10 10° SSW 19:52:51 72° ESE 19:58:28 10° NNE visible
18 Jun ? 19:57:38 10° SSW 20:03:15 63° WNW 20:08:51 10° N visible
19 Jun ? 18:24:00 10° SSE 18:27:30 17° ESE 18:30:59 10° ENE visible
19 Jun ? 20:08:35 10° SW 20:13:40 34° WNW 20:18:45 10° N visible
20 Jun ? 18:33:01 10° S 18:37:58 30° ESE 18:42:51 10° NE visible
20 Jun ? 20:20:15 10° WSW 20:24:06 19° WNW 20:27:59 10° NNW visible
21 Jun ? 18:42:49 10° S 18:48:24 56° ESE 18:53:55 10° NNE visible
